TimeCST,TemperatureF,Dew PointF,Humidity,Sea Level PressureIn,VisibilityMPH,Wind Direction,Wind SpeedMPH,Gust SpeedMPH,PrecipitationIn,Events,Conditions,WindDirDegrees,DateUTC
12:15 AM,32.0,32.0,100,29.27,10.0,East,8.1,-,N/A,,Clear,90,2012-12-03 06:15:00
12:35 AM,32.0,32.0,100,29.28,10.0,East,6.9,-,N/A,,Partly Cloudy,100,2012-12-03 06:35:00
12:55 AM,32.0,32.0,100,29.28,10.0,East,4.6,-,N/A,,Partly Cloudy,100,2012-12-03 06:55:00
1:15 AM,32.0,32.0,100,29.28,10.0,East,6.9,-,N/A,,Mostly Cloudy,100,2012-12-03 07:15:00
1:35 AM,32.0,32.0,100,29.27,10.0,ESE,10.4,-,N/A,,Overcast,120,2012-12-03 07:35:00
1:55 AM,32.0,32.0,100,29.28,10.0,South,3.5,-,N/A,,Overcast,190,2012-12-03 07:55:00
2:15 AM,32.0,32.0,100,29.29,10.0,South,3.5,-,N/A,,Mostly Cloudy,170,2012-12-03 08:15:00
2:35 AM,35.6,32.0,87,29.30,10.0,South,3.5,-,N/A,,Scattered Clouds,190,2012-12-03 08:35:00
2:55 AM,33.8,32.0,93,29.31,10.0,SW,5.8,-,N/A,,Mostly Cloudy,220,2012-12-03 08:55:00
3:15 AM,32.0,32.0,100,29.34,10.0,WSW,11.5,-,N/A,,Scattered Clouds,250,2012-12-03 09:15:00
3:35 AM,35.6,32.0,87,29.35,10.0,West,16.1,-,N/A,,Mostly Cloudy,270,2012-12-03 09:35:00
3:55 AM,37.4,32.0,81,29.35,10.0,WNW,20.7,27.6,N/A,,Mostly Cloudy,300,2012-12-03 09:55:00
4:15 AM,37.4,33.8,87,29.36,10.0,WNW,15.0,-,N/A,,Partly Cloudy,300,2012-12-03 10:15:00
4:35 AM,35.6,33.8,93,29.38,10.0,WNW,15.0,-,N/A,,Partly Cloudy,290,2012-12-03 10:35:00
4:55 AM,37.4,35.6,93,29.39,10.0,WNW,15.0,-,N/A,Rain,Light Rain,300,2012-12-03 10:55:00
5:15 AM,37.4,35.6,93,29.41,9.0,West,10.4,-,N/A,Rain,Light Rain,280,2012-12-03 11:15:00
5:35 AM,35.6,35.6,100,29.42,10.0,West,12.7,-,N/A,,Scattered Clouds,280,2012-12-03 11:35:00
5:55 AM,37.4,37.4,100,29.44,10.0,West,13.8,-,N/A,,Clear,280,2012-12-03 11:55:00
6:15 AM,35.6,35.6,100,29.45,10.0,West,12.7,-,N/A,,Clear,260,2012-12-03 12:15:00
6:35 AM,35.6,35.6,100,29.44,10.0,West,12.7,-,N/A,,Clear,270,2012-12-03 12:35:00
6:55 AM,37.4,35.6,93,29.46,10.0,WNW,23.0,27.6,N/A,,Clear,300,2012-12-03 12:55:00
7:15 AM,35.6,33.8,93,29.46,10.0,WNW,13.8,-,N/A,,Clear,290,2012-12-03 13:15:00
7:35 AM,35.6,33.8,93,29.47,10.0,WNW,10.4,-,N/A,,Clear,290,2012-12-03 13:35:00
7:55 AM,35.6,33.8,93,29.49,10.0,West,10.4,-,N/A,,Partly Cloudy,280,2012-12-03 13:55:00
8:15 AM,35.6,33.8,93,29.50,10.0,West,13.8,-,N/A,,Partly Cloudy,280,2012-12-03 14:15:00
8:35 AM,35.6,33.8,93,29.51,10.0,West,12.7,-,N/A,,Scattered Clouds,280,2012-12-03 14:35:00
9:15 AM,35.6,33.8,93,29.52,10.0,WNW,19.6,-,N/A,,Scattered Clouds,290,2012-12-03 15:15:00
9:35 AM,35.6,32.0,87,29.53,10.0,WNW,19.6,27.6,N/A,,Partly Cloudy,290,2012-12-03 15:35:00
9:55 AM,35.6,32.0,87,29.54,10.0,NW,16.1,25.3,N/A,,Clear,310,2012-12-03 15:55:00
10:15 AM,33.8,28.4,81,29.55,10.0,WNW,25.3,33.4,N/A,,Clear,300,2012-12-03 16:15:00
10:35 AM,32.0,28.4,87,29.56,10.0,WNW,18.4,38.0,N/A,,Clear,300,2012-12-03 16:35:00
10:55 AM,32.0,26.6,80,29.57,10.0,WNW,24.2,33.4,N/A,,Partly Cloudy,300,2012-12-03 16:55:00
11:15 AM,32.0,26.6,80,29.57,10.0,WNW,24.2,36.8,N/A,,Partly Cloudy,300,2012-12-03 17:15:00
11:35 AM,32.0,26.6,80,29.59,10.0,WNW,26.5,40.3,N/A,,Mostly Cloudy,290,2012-12-03 17:35:00
11:55 AM,32.0,26.6,80,29.58,10.0,WNW,32.2,39.1,N/A,,Mostly Cloudy,290,2012-12-03 17:55:00
12:15 PM,32.0,26.6,80,29.59,10.0,WNW,28.8,35.7,N/A,,Mostly Cloudy,290,2012-12-03 18:15:00
12:35 PM,32.0,26.6,80,29.59,10.0,WNW,24.2,35.7,N/A,,Overcast,290,2012-12-03 18:35:00
12:55 PM,28.4,23.0,80,29.60,10.0,WNW,33.4,41.4,N/A,,Scattered Clouds,290,2012-12-03 18:55:00
1:15 PM,26.6,19.4,74,29.61,10.0,WNW,33.4,42.6,N/A,,Clear,290,2012-12-03 19:15:00
1:35 PM,26.6,19.4,74,29.63,10.0,WNW,31.1,38.0,N/A,,Scattered Clouds,290,2012-12-03 19:35:00
1:55 PM,26.6,19.4,74,29.65,10.0,WNW,27.6,36.8,N/A,,Mostly Cloudy,300,2012-12-03 19:55:00
2:15 PM,21.2,15.8,80,29.65,10.0,WNW,25.3,35.7,N/A,,Scattered Clouds,300,2012-12-03 20:15:00
2:35 PM,23.0,15.8,74,29.67,10.0,WNW,27.6,35.7,N/A,,Clear,300,2012-12-03 20:35:00
2:55 PM,19.4,14.0,80,29.68,10.0,WNW,28.8,42.6,N/A,,Clear,290,2012-12-03 20:55:00
3:15 PM,19.4,10.4,68,29.69,10.0,WNW,32.2,43.7,N/A,,Clear,290,2012-12-03 21:15:00
3:35 PM,17.6,10.4,73,29.70,10.0,WNW,28.8,39.1,N/A,,Clear,290,2012-12-03 21:35:00
3:55 PM,17.6,10.4,73,29.71,10.0,WNW,29.9,38.0,N/A,,Clear,290,2012-12-03 21:55:00
4:15 PM,17.6,8.6,68,29.72,10.0,WNW,27.6,40.3,N/A,,Clear,300,2012-12-03 22:15:00
4:35 PM,15.8,8.6,73,29.74,10.0,WNW,27.6,33.4,N/A,,Clear,290,2012-12-03 22:35:00
4:55 PM,15.8,8.6,73,29.74,10.0,WNW,28.8,39.1,N/A,,Clear,290,2012-12-03 22:55:00
5:15 PM,15.8,8.6,73,29.75,10.0,WNW,26.5,33.4,N/A,,Clear,290,2012-12-03 23:15:00
5:35 PM,15.8,8.6,73,29.77,10.0,WNW,21.9,27.6,N/A,,Clear,300,2012-12-03 23:35:00
5:55 PM,14.0,6.8,73,29.79,10.0,WNW,21.9,29.9,N/A,,Clear,290,2012-12-03 23:55:00
6:15 PM,14.0,8.6,79,29.80,10.0,WNW,20.7,27.6,N/A,,Clear,290,2012-12-04 00:15:00
6:35 PM,14.0,8.6,79,29.81,10.0,WNW,19.6,26.5,N/A,,Clear,290,2012-12-04 00:35:00
6:55 PM,14.0,6.8,73,29.82,10.0,WNW,23.0,29.9,N/A,,Clear,300,2012-12-04 00:55:00
7:15 PM,14.0,6.8,73,29.84,10.0,WNW,19.6,28.8,N/A,,Clear,290,2012-12-04 01:15:00
7:35 PM,14.0,6.8,73,29.84,10.0,NW,21.9,28.8,N/A,,Clear,310,2012-12-04 01:35:00
7:55 PM,14.0,6.8,73,29.85,10.0,NW,19.6,28.8,N/A,,Clear,310,2012-12-04 01:55:00
8:15 PM,12.2,6.8,79,29.85,10.0,WNW,26.5,32.2,N/A,,Clear,300,2012-12-04 02:15:00
8:35 PM,12.2,5.0,73,29.87,10.0,WNW,25.3,32.2,N/A,,Clear,300,2012-12-04 02:35:00
8:55 PM,10.4,5.0,79,29.88,10.0,WNW,24.2,28.8,N/A,,Clear,300,2012-12-04 02:55:00
9:15 PM,10.4,5.0,79,29.89,10.0,WNW,20.7,28.8,N/A,,Clear,300,2012-12-04 03:15:00
9:35 PM,10.4,5.0,79,29.90,10.0,WNW,23.0,27.6,N/A,,Clear,300,2012-12-04 03:35:00
9:55 PM,10.4,5.0,79,29.91,10.0,WNW,20.7,27.6,N/A,,Clear,300,2012-12-04 03:55:00
10:15 PM,10.4,5.0,79,29.93,10.0,WNW,17.3,21.9,N/A,,Clear,300,2012-12-04 04:15:00
10:35 PM,10.4,5.0,79,29.94,10.0,WNW,17.3,21.9,N/A,,Clear,300,2012-12-04 04:35:00
10:55 PM,8.6,5.0,85,29.93,10.0,NW,19.6,24.2,N/A,,Clear,310,2012-12-04 04:55:00
11:15 PM,8.6,5.0,85,29.94,10.0,WNW,16.1,25.3,N/A,,Clear,300,2012-12-04 05:15:00
11:35 PM,8.6,5.0,85,29.96,10.0,WNW,16.1,-,N/A,,Clear,300,2012-12-04 05:35:00
11:55 PM,8.6,3.2,79,29.96,10.0,WNW,16.1,-,N/A,,Clear,300,2012-12-04 05:55:00